Time,TemperatureF,DewpointF,PressureIn,WindDirection,WindDirectionDegrees,WindSpeedMPH,WindSpeedGustMPH,Humidity,HourlyPrecipIn,Conditions,Clouds,dailyrainin,SoftwareType,DateUTC
2013-11-01 00:04:00,64.0,59.0,29.74,South,182,8.0,13.0,85,0.00,,,0.05,,2013-11-01 04:04:00,
2013-11-01 00:14:00,64.0,59.0,29.74,South,182,8.0,13.0,85,0.00,,,0.05,,2013-11-01 04:14:00,
2013-11-01 00:24:00,64.0,59.0,29.74,South,182,8.0,13.0,85,0.00,,,0.05,,2013-11-01 04:24:00,
2013-11-01 00:54:00,65.0,59.0,29.69,SSE,163,6.0,18.0,80,0.00,,,0.05,,2013-11-01 04:54:00,
2013-11-01 01:03:00,65.0,59.0,29.69,SSE,163,6.0,18.0,80,0.00,,,0.05,,2013-11-01 05:03:00,
2013-11-01 01:13:00,65.0,59.0,29.69,SSE,163,6.0,18.0,80,0.00,,,0.05,,2013-11-01 05:13:00,
2013-11-01 01:23:00,65.0,59.0,29.69,SSE,163,6.0,18.0,80,0.00,,,0.05,,2013-11-01 05:23:00,
2013-11-01 01:33:00,65.0,59.0,29.69,SSE,163,6.0,18.0,80,0.00,,,0.05,,2013-11-01 05:33:00,
2013-11-01 01:53:00,66.0,59.0,29.67,WSW,238,10.0,18.0,77,0.00,,,0.05,,2013-11-01 05:53:00,
2013-11-01 02:02:00,66.0,59.0,29.67,WSW,238,10.0,18.0,77,0.00,,,0.05,,2013-11-01 06:02:00,
2013-11-01 02:12:00,66.0,59.0,29.67,WSW,238,10.0,18.0,77,0.00,,,0.05,,2013-11-01 06:12:00,
2013-11-01 02:22:00,66.0,59.0,29.67,WSW,238,10.0,18.0,77,0.00,,,0.05,,2013-11-01 06:22:00,
2013-11-01 02:32:00,66.0,59.0,29.67,WSW,238,10.0,18.0,77,0.00,,,0.05,,2013-11-01 06:32:00,
2013-11-01 02:52:00,64.0,59.0,29.63,SSE,161,7.0,12.0,84,0.02,,,0.07,,2013-11-01 06:52:00,
2013-11-01 03:02:00,64.0,59.0,29.63,SSE,161,7.0,12.0,84,0.02,,,0.07,,2013-11-01 07:02:00,
2013-11-01 03:12:00,64.0,59.0,29.63,SSE,161,7.0,12.0,84,0.02,,,0.07,,2013-11-01 07:12:00,
2013-11-01 03:22:00,64.0,59.0,29.63,SSE,161,7.0,12.0,84,0.02,,,0.07,,2013-11-01 07:22:00,
2013-11-01 03:32:00,64.0,59.0,29.63,SSE,161,7.0,12.0,84,0.02,,,0.07,,2013-11-01 07:32:00,
2013-11-01 03:52:00,65.0,61.0,29.60,South,189,4.0,20.0,88,0.05,,,0.11,,2013-11-01 07:52:00,
2013-11-01 04:03:00,65.0,61.0,29.60,South,189,4.0,20.0,88,0.05,,,0.11,,2013-11-01 08:03:00,
2013-11-01 04:12:00,65.0,61.0,29.60,South,189,4.0,20.0,88,0.05,,,0.11,,2013-11-01 08:12:00,
2013-11-01 04:22:00,65.0,61.0,29.60,South,189,4.0,20.0,88,0.05,,,0.11,,2013-11-01 08:22:00,
2013-11-01 04:32:00,65.0,61.0,29.60,South,189,4.0,20.0,88,0.05,,,0.11,,2013-11-01 08:32:00,
2013-11-01 04:52:00,67.0,62.0,29.56,South,190,7.0,20.0,83,0.00,,,0.11,,2013-11-01 08:52:00,
2013-11-01 05:02:00,67.0,62.0,29.56,South,190,7.0,20.0,83,0.00,,,0.11,,2013-11-01 09:02:00,
2013-11-01 05:12:00,67.0,62.0,29.56,South,190,7.0,20.0,83,0.00,,,0.11,,2013-11-01 09:12:00,
2013-11-01 05:21:00,67.0,62.0,29.56,South,190,7.0,20.0,83,0.00,,,0.11,,2013-11-01 09:21:00,
2013-11-01 05:33:00,67.0,62.0,29.56,South,190,7.0,20.0,83,0.00,,,0.11,,2013-11-01 09:33:00,
2013-11-01 05:53:00,68.0,62.0,29.53,SSW,201,10.0,20.0,82,0.00,,,0.11,,2013-11-01 09:53:00,
2013-11-01 06:03:00,68.0,62.0,29.53,SSW,201,10.0,20.0,82,0.00,,,0.11,,2013-11-01 10:03:00,
2013-11-01 06:13:00,68.0,62.0,29.53,SSW,201,10.0,20.0,82,0.00,,,0.11,,2013-11-01 10:13:00,
2013-11-01 06:23:00,68.0,62.0,29.53,SSW,201,10.0,20.0,82,0.00,,,0.11,,2013-11-01 10:23:00,
2013-11-01 06:33:00,68.0,62.0,29.53,SSW,201,10.0,20.0,82,0.00,,,0.11,,2013-11-01 10:33:00,
2013-11-01 06:53:00,69.0,63.0,29.52,South,169,10.0,26.0,82,0.00,,,0.11,,2013-11-01 10:53:00,
2013-11-01 07:03:00,69.0,63.0,29.52,South,169,10.0,26.0,82,0.00,,,0.11,,2013-11-01 11:03:00,
2013-11-01 07:12:00,69.0,63.0,29.52,South,169,10.0,26.0,82,0.00,,,0.11,,2013-11-01 11:12:00,
2013-11-01 07:22:00,69.0,63.0,29.52,South,169,10.0,26.0,82,0.00,,,0.11,,2013-11-01 11:22:00,
2013-11-01 07:33:00,69.0,63.0,29.52,South,169,10.0,26.0,82,0.00,,,0.11,,2013-11-01 11:33:00,
2013-11-01 07:52:00,62.0,59.0,29.60,West,267,8.0,21.0,89,0.29,,,0.39,,2013-11-01 11:52:00,
2013-11-01 08:02:00,62.0,59.0,29.60,West,267,8.0,21.0,89,0.29,,,0.39,,2013-11-01 12:02:00,
2013-11-01 08:12:00,62.0,59.0,29.60,West,267,8.0,21.0,89,0.29,,,0.39,,2013-11-01 12:12:00,
2013-11-01 08:22:00,62.0,59.0,29.60,West,267,8.0,21.0,89,0.29,,,0.39,,2013-11-01 12:22:00,
2013-11-01 08:32:00,62.0,59.0,29.60,West,267,8.0,21.0,89,0.29,,,0.39,,2013-11-01 12:32:00,
2013-11-01 08:52:00,59.0,57.0,29.62,West,273,1.0,7.0,94,0.14,,,0.50,,2013-11-01 12:52:00,
2013-11-01 09:12:00,59.0,57.0,29.62,West,273,1.0,7.0,94,0.14,,,0.50,,2013-11-01 13:12:00,
2013-11-01 09:22:00,59.0,57.0,29.62,West,273,1.0,7.0,94,0.14,,,0.50,,2013-11-01 13:22:00,
2013-11-01 09:32:00,59.0,57.0,29.62,West,273,1.0,7.0,94,0.14,,,0.50,,2013-11-01 13:32:00,
2013-11-01 09:52:00,59.0,58.0,29.60,SSW,211,0.0,3.0,95,0.05,,,0.54,,2013-11-01 13:52:00,
2013-11-01 10:02:00,59.0,58.0,29.60,SSW,211,0.0,3.0,95,0.05,,,0.54,,2013-11-01 14:02:00,
2013-11-01 10:11:00,59.0,58.0,29.60,SSW,211,0.0,3.0,95,0.05,,,0.54,,2013-11-01 14:11:00,
2013-11-01 10:22:00,59.0,58.0,29.60,SSW,211,0.0,3.0,95,0.05,,,0.54,,2013-11-01 14:22:00,
2013-11-01 10:32:00,59.0,58.0,29.60,SSW,211,0.0,3.0,95,0.05,,,0.54,,2013-11-01 14:32:00,
2013-11-01 10:52:00,61.0,60.0,29.62,South,190,4.0,6.0,95,0.00,,,0.54,,2013-11-01 14:52:00,
2013-11-01 11:02:00,61.0,60.0,29.62,South,190,4.0,6.0,95,0.00,,,0.54,,2013-11-01 15:02:00,
2013-11-01 11:11:00,61.0,60.0,29.62,South,190,4.0,6.0,95,0.00,,,0.54,,2013-11-01 15:11:00,
2013-11-01 11:22:00,61.0,60.0,29.62,South,190,4.0,6.0,95,0.00,,,0.54,,2013-11-01 15:22:00,
2013-11-01 11:33:00,61.0,60.0,29.62,South,190,4.0,6.0,95,0.00,,,0.54,,2013-11-01 15:33:00,
2013-11-01 11:54:00,64.0,62.0,29.61,SW,222,1.0,5.0,92,0.00,,,0.54,,2013-11-01 15:54:00,
2013-11-01 12:04:00,64.0,62.0,29.61,SW,222,1.0,5.0,92,0.00,,,0.54,,2013-11-01 16:04:00,
2013-11-01 12:12:00,64.0,62.0,29.61,SW,222,1.0,5.0,92,0.00,,,0.54,,2013-11-01 16:12:00,
2013-11-01 12:23:00,64.0,62.0,29.61,SW,222,1.0,5.0,92,0.00,,,0.54,,2013-11-01 16:23:00,
2013-11-01 12:32:00,64.0,62.0,29.61,SW,222,1.0,5.0,92,0.00,,,0.54,,2013-11-01 16:32:00,
2013-11-01 12:53:00,66.0,59.0,29.61,WSW,257,5.0,9.0,77,0.00,,,0.54,,2013-11-01 16:53:00,
2013-11-01 13:03:00,66.0,59.0,29.61,WSW,257,5.0,9.0,77,0.00,,,0.54,,2013-11-01 17:03:00,
2013-11-01 13:12:00,66.0,59.0,29.61,WSW,257,5.0,9.0,77,0.00,,,0.54,,2013-11-01 17:12:00,
2013-11-01 13:22:00,66.0,59.0,29.61,WSW,257,5.0,9.0,77,0.00,,,0.54,,2013-11-01 17:22:00,
2013-11-01 13:33:00,66.0,59.0,29.61,WSW,257,5.0,9.0,77,0.00,,,0.54,,2013-11-01 17:33:00,
2013-11-01 13:52:00,71.0,59.0,29.60,WNW,295,3.0,12.0,67,0.00,,,0.54,,2013-11-01 17:52:00,
2013-11-01 14:01:00,71.0,59.0,29.60,WNW,295,3.0,12.0,67,0.00,,,0.54,,2013-11-01 18:01:00,
2013-11-01 14:12:00,71.0,59.0,29.60,WNW,295,3.0,12.0,67,0.00,,,0.54,,2013-11-01 18:12:00,
2013-11-01 14:22:00,71.0,59.0,29.60,WNW,295,3.0,12.0,67,0.00,,,0.54,,2013-11-01 18:22:00,
2013-11-01 14:32:00,71.0,59.0,29.60,WNW,295,3.0,12.0,67,0.00,,,0.54,,2013-11-01 18:32:00,
2013-11-01 14:52:00,73.0,52.0,29.59,SW,223,8.0,14.0,47,0.00,,,0.54,,2013-11-01 18:52:00,
2013-11-01 15:02:00,73.0,52.0,29.59,SW,223,8.0,14.0,47,0.00,,,0.54,,2013-11-01 19:02:00,
2013-11-01 15:12:00,73.0,52.0,29.59,SW,223,8.0,14.0,47,0.00,,,0.54,,2013-11-01 19:12:00,
2013-11-01 15:22:00,73.0,52.0,29.59,SW,223,8.0,14.0,47,0.00,,,0.54,,2013-11-01 19:22:00,
2013-11-01 15:32:00,73.0,52.0,29.59,SW,223,8.0,14.0,47,0.00,,,0.54,,2013-11-01 19:32:00,
2013-11-01 15:52:00,75.0,50.0,29.58,West,267,7.0,12.0,42,0.00,,,0.54,,2013-11-01 19:52:00,
2013-11-01 16:02:00,75.0,50.0,29.58,West,267,7.0,12.0,42,0.00,,,0.54,,2013-11-01 20:02:00,
2013-11-01 16:12:00,75.0,50.0,29.58,West,267,7.0,12.0,42,0.00,,,0.54,,2013-11-01 20:12:00,
2013-11-01 16:22:00,75.0,50.0,29.58,West,267,7.0,12.0,42,0.00,,,0.54,,2013-11-01 20:22:00,
2013-11-01 16:32:00,75.0,50.0,29.58,West,267,7.0,12.0,42,0.00,,,0.54,,2013-11-01 20:32:00,
2013-11-01 16:34:00,74.0,49.0,29.58,West,272,7.0,10.0,41,0.00,,,0.54,,2013-11-01 20:34:00,
2013-11-01 16:52:00,74.0,49.0,29.58,West,272,7.0,10.0,41,0.00,,,0.54,,2013-11-01 20:52:00,
2013-11-01 17:01:00,74.0,49.0,29.58,West,272,7.0,10.0,41,0.00,,,0.54,,2013-11-01 21:01:00,
2013-11-01 17:12:00,74.0,49.0,29.58,West,272,7.0,10.0,41,0.00,,,0.54,,2013-11-01 21:12:00,
2013-11-01 17:22:00,74.0,49.0,29.58,West,272,7.0,10.0,41,0.00,,,0.54,,2013-11-01 21:22:00,
2013-11-01 17:55:00,73.0,51.0,29.59,WNW,284,0.0,0.0,46,0.00,,,0.54,,2013-11-01 21:55:00,
2013-11-01 18:03:00,73.0,51.0,29.59,WNW,284,0.0,0.0,46,0.00,,,0.54,,2013-11-01 22:03:00,
2013-11-01 18:14:00,73.0,51.0,29.59,WNW,284,0.0,0.0,46,0.00,,,0.54,,2013-11-01 22:14:00,
2013-11-01 18:24:00,73.0,51.0,29.59,WNW,284,0.0,0.0,46,0.00,,,0.54,,2013-11-01 22:24:00,
2013-11-01 18:34:00,73.0,51.0,29.59,WNW,284,0.0,0.0,46,0.00,,,0.54,,2013-11-01 22:34:00,
2013-11-01 18:53:00,65.0,50.0,29.60,WNW,284,0.0,0.0,59,0.00,,,0.54,,2013-11-01 22:53:00,
2013-11-01 19:03:00,65.0,50.0,29.60,WNW,284,0.0,0.0,59,0.00,,,0.54,,2013-11-01 23:03:00,
2013-11-01 19:12:00,65.0,50.0,29.60,WNW,284,0.0,0.0,59,0.00,,,0.54,,2013-11-01 23:12:00,
2013-11-01 19:22:00,65.0,50.0,29.60,WNW,284,0.0,0.0,59,0.00,,,0.54,,2013-11-01 23:22:00,
2013-11-01 19:34:00,65.0,50.0,29.60,WNW,284,0.0,0.0,59,0.00,,,0.54,,2013-11-01 23:34:00,
2013-11-01 19:53:00,59.0,50.0,29.61,WNW,284,0.0,0.0,72,0.00,,,0.53,,2013-11-01 23:53:00,
2013-11-01 20:02:00,59.0,50.0,29.61,WNW,284,0.0,0.0,72,0.00,,,0.53,,2013-11-02 00:02:00,
2013-11-01 20:11:00,59.0,50.0,29.61,WNW,284,0.0,0.0,72,0.00,,,0.53,,2013-11-02 00:11:00,
2013-11-01 20:22:00,59.0,50.0,29.61,WNW,284,0.0,0.0,72,0.00,,,0.53,,2013-11-02 00:22:00,
2013-11-01 20:32:00,59.0,50.0,29.61,WNW,284,0.0,0.0,72,0.00,,,0.53,,2013-11-02 00:32:00,
2013-11-01 20:52:00,55.0,49.0,29.62,WNW,284,0.0,0.0,80,0.00,,,0.51,,2013-11-02 00:52:00,
2013-11-01 21:02:00,55.0,49.0,29.62,WNW,284,0.0,0.0,80,0.00,,,0.51,,2013-11-02 01:02:00,
2013-11-01 21:12:00,55.0,49.0,29.62,WNW,284,0.0,0.0,80,0.00,,,0.51,,2013-11-02 01:12:00,
2013-11-01 21:22:00,55.0,49.0,29.62,WNW,284,0.0,0.0,80,0.00,,,0.51,,2013-11-02 01:22:00,
2013-11-01 21:32:00,55.0,49.0,29.62,WNW,284,0.0,0.0,80,0.00,,,0.51,,2013-11-02 01:32:00,
2013-11-01 21:52:00,53.0,48.0,29.64,WNW,284,0.0,0.0,84,0.00,,,0.50,,2013-11-02 01:52:00,
2013-11-01 22:02:00,53.0,48.0,29.64,WNW,284,0.0,0.0,84,0.00,,,0.50,,2013-11-02 02:02:00,
2013-11-01 22:12:00,53.0,48.0,29.64,WNW,284,0.0,0.0,84,0.00,,,0.50,,2013-11-02 02:12:00,
2013-11-01 22:22:00,53.0,48.0,29.64,WNW,284,0.0,0.0,84,0.00,,,0.50,,2013-11-02 02:22:00,
2013-11-01 22:32:00,53.0,48.0,29.64,WNW,284,0.0,0.0,84,0.00,,,0.50,,2013-11-02 02:32:00,
2013-11-01 22:34:00,51.0,47.0,29.65,WNW,284,0.0,0.0,87,0.00,,,0.50,,2013-11-02 02:34:00,
2013-11-01 22:53:00,51.0,47.0,29.65,WNW,284,0.0,0.0,87,0.00,,,0.50,,2013-11-02 02:53:00,
2013-11-01 23:02:00,51.0,47.0,29.65,WNW,284,0.0,0.0,87,0.00,,,0.50,,2013-11-02 03:02:00,
2013-11-01 23:11:00,51.0,47.0,29.65,WNW,284,0.0,0.0,87,0.00,,,0.50,,2013-11-02 03:11:00,
2013-11-01 23:22:00,51.0,47.0,29.65,WNW,284,0.0,0.0,87,0.00,,,0.50,,2013-11-02 03:22:00,
2013-11-01 23:54:00,49.0,46.0,29.64,WNW,284,0.0,0.0,89,0.00,,,0.50,,2013-11-02 03:54:00,